SCP
0 0 0 0 0 0 0 0 0 0 0 1 3 4 3 4 7 8 7 6 6 6 6 6 7 9 9 9 11 12 12 12 12 13 12 11 10 10 10 9 10 13 14 13
0 0 0 0 0 0 0 0 0 0 0 2 4 5 3 4 7 9 8 6 6 6 6 6 8 8 8 8 10 11 11 10 11 12 12 11 10 10 10 9 10 12 14 14
0 0 0 0 0 0 0 0 0 0 1 2 5 5 3 3 6 9 8 6 5 6 7 7 8 8 8 7 9 10 10 10 10 10 11 10 9 8 8 8 9 10 12 13
0 0 0 0 0 0 0 0 0 1 1 2 3 3 2 2 5 8 7 5 5 6 7 7 8 8 8 7 8 9 10 10 10 10 9 9 8 7 7 7 8 8 9 10
0 0 0 0 0 0 0 0 0 1 1 1 1 2 2 3 5 7 6 3 4 6 7 7 7 8 8 8 8 9 11 12 11 11 10 9 8 7 7 7 7 7 8 8
0 0 0 0 0 0 0 0 0 1 1 1 1 1 2 3 4 5 4 3 3 5 7 6 6 7 9 10 10 10 11 13 14 13 12 10 9 8 7 7 7 8 9 10
0 0 0 0 0 0 0 0 0 0 1 1 1 2 2 3 3 3 3 2 3 4 6 6 6 8 10 12 12 11 12 14 15 15 13 12 11 10 8 8 9 11 13 13
0 0 0 0 0 0 0 0 0 0 0 1 1 2 2 2 2 2 3 3 3 4 5 6 7 8 10 13 14 14 13 15 16 15 14 13 13 12 11 11 11 14 16 17
0 0 0 0 0 0 0 0 0 0 0 0 1 2 2 2 2 3 4 4 4 5 5 6 7 9 11 13 15 16 15 15 15 15 13 13 13 14 14 14 14 15 17 18
0 0 0 0 0 0 0 0 0 0 0 0 1 1 2 2 3 5 5 4 5 5 6 6 7 9 12 14 16 17 17 16 15 14 12 11 12 13 14 15 17 17 18 18
0 0 0 0 0 0 0 0 0 1 1 1 1 1 2 3 4 4 3 3 4 4 5 5 6 9 12 15 16 18 19 17 15 12 11 10 11 11 13 15 17 17 16 16
0 0 0 0 0 0 0 0 0 1 1 1 1 1 3 4 4 3 2 2 2 2 3 3 5 8 11 14 16 17 19 18 15 13 12 11 11 10 11 12 13 13 13 13
1 1 1 0 0 0 0 0 0 0 1 1 1 1 3 4 3 2 2 1 2 2 2 3 5 8 9 11 14 17 19 18 16 15 15 14 12 10 9 9 9 8 8 8
1 1 1 0 0 0 0 0 0 0 1 1 1 1 2 3 3 2 2 2 2 2 2 4 7 9 9 9 13 18 21 19 17 16 16 14 12 10 8 6 6 5 4 4
1 1 1 0 0 0 0 0 0 0 0 0 1 1 2 3 2 2 2 2 2 2 3 5 7 9 9 9 13 18 22 20 16 15 13 12 10 8 6 4 4 3 2 2
1 1 1 0 0 0 0 0 0 0 1 1 1 2 2 2 2 2 2 2 2 2 2 4 6 9 11 12 15 20 22 20 16 13 10 8 6 4 3 2 2 2 2 2
2 2 1 1 0 0 1 1 0 1 1 1 1 2 2 2 2 2 3 3 3 3 3 4 7 12 16 16 17 19 19 16 12 9 6 4 2 2 1 1 1 1 1 1
3 3 2 1 1 1 1 0 0 1 1 1 2 2 2 2 3 3 3 3 3 3 4 6 9 13 16 16 15 13 11 8 5 3 2 1 1 1 1 1 1 1 1 1
2 3 2 1 1 1 1 1 1 1 1 1 1 2 2 2 3 4 3 2 3 3 4 5 7 9 10 10 9 6 4 2 1 1 1 0 0 1 1 1 1 1 1 1
1 2 2 1 1 1 1 1 1 1 1 1 1 1 1 2 3 3 2 2 2 2 2 3 3 5 6 6 5 3 1 1 1 0 0 0 1 1 1 1 1 1 1 1
1 2 2 1 1 1 1 1 1 2 2 1 1 1 1 2 3 2 2 1 2 2 2 2 3 3 5 5 4 2 1 1 1 0 0 1 1 1 1 1 1 1 1 1
2 2 2 1 1 1 1 2 2 2 2 1 1 1 2 2 2 2 1 1 1 2 2 3 4 4 5 5 4 2 1 1 1 1 1 1 1 1 1 1 2 2 1 1
2 2 2 1 1 2 2 2 2 2 2 1 1 2 2 2 1 1 1 1 1 2 3 4 4 4 4 3 2 1 1 1 1 1 1 1 1 1 2 2 2 2 2 2
1 1 1 1 1 2 2 2 2 3 2 2 2 2 1 1 1 1 1 1 1 2 3 3 3 3 2 2 1 1 1 1 1 1 2 2 1 1 2 2 2 2 2 2
1 1 1 1 1 1 1 1 1 2 2 2 2 1 1 1 1 1 1 1 1 2 2 2 2 2 1 1 1 1 1 1 1 2 2 1 1 1 2 2 2 1 1 1
1 1 1 1 1 1 1 1 1 1 2 2 1 1 0 0 1 1 1 1 1 1 2 2 2 2 1 1 1 1 1 1 1 2 1 1 1 1 1 1 1 1 1 1
Wind_Speed
14 12 12 10 10 11 12 11 12 7 4 6 5 4 4 6 4 3 4 4 5 5 6 6 4 4 3 3 2 2 1 1 0 0 1 1 1 1 1 1 1 1 2 2
12 14 11 9 10 12 13 12 12 7 4 4 6 6 5 5 5 2 3 4 4 5 5 5 4 4 3 3 2 2 2 1 1 0 1 2 2 2 2 1 1 2 2 2
14 9 7 9 11 11 13 11 10 10 8 8 9 8 5 4 6 5 3 3 4 4 4 3 3 2 2 2 2 2 2 1 1 1 1 1 2 2 1 1 1 1 2 3
12 10 9 10 11 11 12 10 10 11 9 9 10 6 5 7 6 7 5 4 3 4 4 3 2 2 2 2 2 2 2 1 1 1 2 2 2 3 2 2 1 2 3 3
10 9 10 10 9 11 11 10 11 12 12 12 8 6 4 7 6 6 5 3 2 3 4 3 2 1 1 2 2 2 2 0 1 1 2 2 3 2 2 2 2 3 3 3
11 10 10 9 9 10 10 11 12 12 10 11 8 7 3 3 5 6 6 5 3 3 3 3 3 2 1 2 2 2 1 0 1 2 2 2 2 3 3 3 3 3 2 3
12 11 9 8 9 9 9 9 8 7 7 7 7 5 2 4 4 5 6 5 4 3 3 3 3 3 2 1 1 1 1 0 1 1 2 2 3 3 3 3 3 3 3 3
9 8 7 7 7 7 8 9 8 8 8 7 5 1 4 6 5 4 5 5 4 3 2 2 2 2 1 1 1 1 1 1 1 1 2 2 2 2 2 3 3 3 3 3
7 6 6 6 6 8 9 8 9 8 11 9 3 3 4 5 5 3 4 5 4 3 2 2 2 2 1 1 1 1 1 1 1 2 2 2 2 3 3 2 3 3 3 4
8 9 7 6 8 10 9 6 5 6 6 8 5 1 4 4 3 3 3 4 4 3 3 2 1 1 1 1 1 1 1 0 1 1 2 2 2 2 2 3 3 3 4 3
6 7 8 7 7 6 6 6 6 6 6 7 6 1 6 5 4 3 3 4 4 3 3 2 2 2 2 2 2 1 1 1 1 1 2 2 2 3 3 3 3 3 3 3
4 5 7 8 5 3 5 5 5 5 6 7 6 1 6 7 5 5 4 4 4 3 3 3 3 3 3 3 3 3 2 2 2 1 1 2 2 3 2 3 3 3 3 3
3 3 6 6 4 3 5 6 7 7 6 7 7 1 5 6 6 5 4 4 3 3 3 4 4 4 4 3 3 3 3 3 2 2 1 1 2 2 3 3 3 3 3 3
4 5 6 7 7 7 7 8 8 8 6 5 5 1 3 3 4 4 4 3 3 3 4 5 5 4 4 4 4 4 3 3 3 3 2 2 2 2 2 3 3 3 4 3
4 6 8 9 11 9 8 8 8 7 6 5 4 1 2 4 3 4 4 4 4 3 4 5 5 4 4 4 4 4 4 4 3 3 2 2 2 2 2 3 3 3 4 4
3 6 8 10 11 9 9 8 8 7 6 5 2 2 6 5 3 4 3 4 3 3 4 5 4 4 4 4 4 4 4 4 3 3 3 3 2 2 2 3 3 3 4 4
4 5 8 10 10 9 8 6 6 5 4 4 2 5 5 4 3 3 4 4 4 4 4 4 4 4 3 4 4 4 4 4 3 3 3 3 3 3 3 4 4 3 4 4
6 6 6 9 9 10 4 1 2 2 3 5 6 6 5 4 4 6 5 5 5 5 5 4 4 4 3 4 4 4 4 4 4 4 4 4 4 4 3 3 4 4 4 4
6 5 7 8 9 7 4 1 1 1 2 5 6 5 5 5 5 7 7 6 5 5 5 4 3 3 3 4 4 5 5 5 5 5 5 5 4 4 4 4 4 4 4 4
7 5 6 8 10 7 2 4 3 1 2 4 5 3 3 2 2 4 5 5 5 4 4 3 3 3 3 3 4 4 4 5 5 5 5 4 4 3 4 4 4 4 4 4
6 7 8 10 10 3 4 4 1 2 2 4 3 2 2 3 4 4 4 4 4 4 4 3 3 3 3 3 3 4 4 5 5 6 5 4 4 3 4 3 3 4 4 5
6 5 6 7 8 1 5 3 3 4 4 3 2 3 4 5 5 4 4 3 3 4 4 3 2 3 3 3 3 4 5 5 5 5 5 5 4 5 4 3 3 4 4 5
4 2 2 2 2 4 5 5 5 4 3 3 3 4 4 4 3 4 3 3 3 3 3 3 3 3 3 3 4 5 5 5 5 5 5 5 5 4 4 3 4 4 3 3
1 1 2 1 3 2 4 4 4 4 4 3 4 5 4 4 4 3 3 3 3 3 3 3 3 4 4 4 5 5 6 6 6 5 5 4 4 4 4 3 4 3 3 3
3 2 3 3 2 2 2 3 3 4 3 4 5 4 4 3 3 3 2 2 2 3 3 3 3 3 4 4 4 5 6 6 6 6 6 5 5 5 3 3 3 3 2 2
4 2 3 1 2 1 2 2 3 3 3 4 4 4 3 3 2 2 2 2 2 2 2 3 3 4 4 5 5 4 5 5 5 6 6 6 6 4 4 3 3 3 4 4
Wind_Direction
231 232 239 243 252 268 272 274 277 274 229 243 241 224 183 154 160 158 145 140 131 127 116 108 106 114 112 105 107 130 118 93 98 300 303 285 280 284 281 259 269 273 271 269
242 237 244 262 267 266 268 269 274 277 262 244 241 234 190 164 158 145 140 140 133 126 118 114 112 110 112 110 108 100 79 64 340 330 283 265 278 272 256 258 258 253 261 264
243 243 243 258 266 269 268 266 275 282 280 258 245 236 197 170 155 142 148 152 138 137 128 120 119 119 124 115 115 100 92 76 314 305 278 287 283 276 266 279 271 274 274 265
248 248 248 252 258 269 271 269 272 272 269 266 254 254 190 178 173 158 169 163 146 137 132 133 130 137 132 126 121 113 103 91 286 293 283 288 279 287 290 281 277 280 267 266
252 246 249 258 264 268 276 284 276 267 267 273 267 268 204 171 172 159 156 157 152 149 140 139 148 124 105 105 104 100 104 80 302 284 265 274 292 299 301 299 282 280 269 258
259 252 249 253 259 260 275 274 267 257 254 261 257 262 228 162 164 155 161 163 181 151 140 137 136 121 99 81 91 91 97 77 307 293 292 279 289 290 287 291 287 282 281 274
249 246 238 241 254 248 257 269 274 268 248 257 248 252 127 122 133 140 151 156 156 140 139 124 120 127 121 110 102 115 123 148 290 289 295 289 279 274 269 276 276 280 285 280
250 236 234 237 252 268 261 269 273 287 293 288 281 261 123 119 121 122 133 131 127 122 112 118 112 114 117 128 113 107 130 215 242 266 272 266 265 277 282 285 296 292 287 283
278 257 239 238 236 256 258 262 282 279 277 282 285 118 123 125 121 105 105 107 113 118 107 89 104 120 145 146 130 133 161 232 259 267 265 257 263 281 294 295 288 291 287 287
267 280 261 242 230 226 255 274 287 276 284 292 287 208 139 168 120 87 75 81 65 67 89 79 80 84 83 97 108 133 134 255 274 276 289 292 280 280 292 301 293 301 303 307
274 275 274 260 244 256 256 267 280 286 286 288 290 19 113 114 107 90 57 62 64 35 24 52 48 50 45 41 32 27 22 309 298 288 285 303 292 286 286 289 293 292 296 303
257 276 281 270 267 263 255 266 277 286 294 287 289 72 106 114 96 72 54 58 59 33 13 29 36 31 19 22 16 3 346 311 304 297 283 299 302 306 303 299 307 309 298 291
292 268 275 261 230 234 249 246 257 263 262 278 284 152 122 117 99 86 78 65 63 36 21 31 32 31 19 15 16 10 334 320 323 331 322 309 307 312 308 314 313 303 294 289
257 254 267 280 290 280 271 271 265 267 274 280 286 250 150 118 103 92 94 88 69 46 24 36 33 31 23 17 14 5 353 348 347 353 350 341 321 305 302 312 306 302 296 290
259 260 265 270 276 283 277 279 280 275 273 275 287 209 129 120 118 108 100 92 66 47 26 31 33 21 16 12 9 1 356 350 353 353 344 333 313 297 303 304 302 300 294 288
246 277 284 278 275 272 275 275 272 275 280 281 303 81 87 87 83 99 101 95 77 54 37 34 26 20 15 9 357 357 355 348 354 346 333 326 316 307 308 300 298 303 299 296
239 255 273 276 278 278 274 271 266 275 285 310 356 78 84 72 63 62 73 70 59 48 38 32 30 24 11 358 349 347 346 347 344 339 338 334 326 329 327 317 322 316 308 303
251 257 265 273 276 268 277 328 306 321 29 51 79 103 122 113 95 88 79 66 50 30 28 34 33 25 6 358 354 348 349 345 340 341 338 334 332 336 332 325 322 313 306 302
215 243 265 272 271 266 277 331 359 358 45 66 80 86 90 90 102 89 66 56 47 36 35 34 33 25 9 5 357 350 350 345 341 341 337 339 336 332 329 323 314 307 306 304
197 210 252 272 279 285 350 57 17 284 138 67 81 94 98 97 111 88 64 53 39 36 33 25 22 13 5 2 353 340 341 341 342 336 330 331 330 327 321 309 306 309 305 301
215 220 239 259 268 284 42 54 336 272 62 73 77 101 95 67 59 89 84 62 47 38 29 20 14 3 354 344 335 325 332 336 332 326 324 327 329 319 305 305 311 308 305 301
239 249 248 259 266 275 54 46 39 68 70 83 101 97 89 89 95 97 88 65 46 34 22 12 5 353 345 338 328 321 329 329 325 324 324 324 317 308 308 306 300 294 295 300
243 271 310 359 44 73 62 74 93 111 107 105 109 101 108 108 106 100 85 64 42 28 20 360 344 343 343 343 335 326 327 323 318 316 316 313 306 296 291 287 290 294 295 300
206 246 245 213 145 125 95 87 86 84 85 87 90 96 97 91 89 81 69 49 34 20 11 355 349 340 333 332 333 328 328 327 318 315 310 303 298 293 285 286 289 294 306 308
308 238 244 228 169 158 112 95 87 80 91 94 95 99 95 89 87 75 58 40 19 7 358 353 345 329 326 330 330 328 331 328 328 325 315 308 300 292 282 278 290 296 302 300
290 282 251 247 139 171 132 112 108 104 100 100 104 104 98 89 76 63 46 29 4 348 347 344 339 334 328 326 323 328 334 330 323 318 315 308 300 292 287 280 282 287 271 273